| time (UTC) | temp C | wind direction | speed KPH | gust KPH | rain 1hr cm | rain 24hr cm | rain mn cm | humidity % | barometer mb |
| 20260505092314 | -1 | 344 | 8.0 | 14.5 | 0.00 | 0.00 | 0.00 | 64 | 1013.0 |
| 20260505091314 | 0 | 11 | 9.7 | 16.1 | 0.00 | 0.00 | 0.00 | 63 | 1012.9 |
| 20260505090313 | 0 | 350 | 11.3 | 19.3 | 0.00 | 0.00 | 0.00 | 60 | 1012.9 |
| 20260505083048 | 1 | 344 | 12.9 | 22.5 | 0.00 | 0.00 | 0.00 | 58 | 1012.6 |
| 20260505082058 | 2 | 315 | 14.5 | 22.5 | 0.00 | 0.00 | 0.00 | 59 | 1012.5 |
| 20260505075910 | 2 | 337 | 14.5 | 22.5 | 0.00 | 0.00 | 0.00 | 64 | 1012.4 |
| 20260505074858 | 2 | 0 | 14.5 | 22.5 | 0.00 | 0.00 | 0.00 | 64 | 1012.4 |
| 20260505073846 | 2 | 318 | 14.5 | 20.9 | 0.00 | 0.00 | 0.00 | 64 | 1012.4 |
| 20260505072824 | 2 | 317 | 12.9 | 20.9 | 0.00 | 0.00 | 0.00 | 63 | 1012.4 |
| 20260505071840 | 2 | 331 | 12.9 | 17.7 | 0.00 | 0.00 | 0.00 | 64 | 1012.5 |
| 20260505064553 | 2 | 320 | 12.9 | 22.5 | 0.00 | 0.00 | 0.00 | 65 | 1012.4 |
| 20260505063601 | 2 | 321 | 12.9 | 22.5 | 0.00 | 0.00 | 0.00 | 65 | 1012.4 |
| 20260505062536 | 2 | 319 | 14.5 | 20.9 | 0.00 | 0.00 | 0.00 | 65 | 1012.4 |
| 20260505061559 | 2 | 313 | 14.5 | 29.0 | 0.00 | 0.00 | 0.00 | 65 | 1012.2 |
| 20260505055409 | 2 | 329 | 14.5 | 24.1 | 0.00 | 0.00 | 0.00 | 66 | 1012.1 |
| 20260505054406 | 2 | 306 | 11.3 | 19.3 | 0.00 | 0.00 | 0.00 | 67 | 1012.1 |
| 20260505053347 | 2 | 324 | 12.9 | 19.3 | 0.00 | 0.00 | 0.00 | 68 | 1012.1 |
| 20260505051246 | 2 | 0 | 12.9 | 20.9 | 0.00 | 0.00 | 0.00 | 70 | 1012.0 |
| 20260505050237 | 2 | 311 | 16.1 | 22.5 | 0.00 | 0.00 | 0.00 | 71 | 1012.0 |
| 20260505041312 | 3 | 329 | 16.1 | 33.8 | 0.00 | 0.00 | 0.00 | 66 | 1011.8 |
| 20260505040234 | 3 | 0 | 19.3 | 33.8 | 0.00 | 0.00 | 0.00 | 67 | 1011.7 |
| 20260505034044 | 3 | 315 | 22.5 | 30.6 | 0.00 | 0.00 | 0.00 | 64 | 1011.5 |
| 20260505033014 | 3 | 317 | 16.1 | 30.6 | 0.00 | 0.00 | 0.00 | 64 | 1011.4 |
| 20260505032006 | 3 | 0 | 19.3 | 30.6 | 0.00 | 0.00 | 0.00 | 64 | 1011.4 |
| 20260505030935 | 3 | 0 | 17.7 | 29.0 | 0.00 | 0.00 | 0.00 | 64 | 1011.3 |
| 20260505025925 | 3 | 346 | 19.3 | 29.0 | 0.00 | 0.00 | 0.00 | 63 | 1011.2 |
| 20260505023817 | 4 | 310 | 24.1 | 37.0 | 0.00 | 0.00 | 0.00 | 57 | 1011.0 |
| 20260505022736 | 3 | 0 | 22.5 | 37.0 | 0.00 | 0.00 | 0.00 | 57 | 1010.8 |
| 20260505021735 | 4 | 308 | 24.1 | 40.2 | 0.00 | 0.00 | 0.00 | 56 | 1010.7 |
| 20260505014404 | 4 | 321 | 25.7 | 35.4 | 0.00 | 0.00 | 0.00 | 55 | 1010.3 |
| 20260505012301 | 5 | 334 | 25.7 | 38.6 | 0.00 | 0.00 | 0.00 | 53 | 1010.1 |
| 20260505010112 | 5 | 324 | 32.2 | 43.5 | 0.00 | 0.00 | 0.00 | 53 | 1010.1 |
| 20260505005038 | 5 | 334 | 32.2 | 43.5 | 0.00 | 0.00 | 0.00 | 52 | 1010.1 |
| 20260505004035 | 5 | 306 | 27.4 | 41.8 | 0.00 | 0.00 | 0.00 | 54 | 1010.0 |
| 20260505003043 | 5 | 319 | 27.4 | 41.8 | 0.00 | 0.00 | 0.00 | 55 | 1009.9 |
| 20260505002054 | 5 | 317 | 24.1 | 40.2 | 0.00 | 0.00 | 0.00 | 56 | 1010.0 |
| 20260505001041 | 5 | 330 | 22.5 | 48.3 | 0.00 | 0.00 | 0.00 | 58 | 1009.9 |
| 20260505000031 | 5 | 336 | 29.0 | 48.3 | 0.00 | 0.00 | 0.00 | 58 | 1009.9 |
| 20260504235036 | 5 | 323 | 22.5 | 38.6 | 0.00 | 0.00 | 0.00 | 55 | 1009.8 |
| 20260504234006 | 5 | 336 | 25.7 | 48.3 | 0.00 | 0.00 | 0.00 | 56 | 1009.8 |
| 20260504233015 | 5 | 321 | 30.6 | 48.3 | 0.00 | 0.00 | 0.00 | 51 | 1009.7 |
| 20260504231952 | 5 | 0 | 30.6 | 45.1 | 0.00 | 0.00 | 0.00 | 52 | 1009.4 |
| 20260504230931 | 5 | 300 | 29.0 | 45.1 | 0.00 | 0.00 | 0.00 | 51 | 1009.3 |
| 20260504225858 | 5 | 306 | 30.6 | 46.7 | 0.00 | 0.00 | 0.00 | 51 | 1009.2 |
| 20260504223724 | 5 | 313 | 29.0 | 49.9 | 0.00 | 0.00 | 0.00 | 51 | 1009.2 |
| 20260504222720 | 5 | 347 | 33.8 | 49.9 | 0.00 | 0.00 | 0.00 | 51 | 1009.0 |
| 20260504221718 | 5 | 323 | 35.4 | 53.1 | 0.00 | 0.00 | 0.00 | 49 | 1009.1 |
| 20260504220719 | 5 | 319 | 35.4 | 53.1 | 0.00 | 0.00 | 0.00 | 49 | 1009.0 |
| 20260504215725 | 5 | 294 | 37.0 | 49.9 | 0.00 | 0.00 | 0.00 | 48 | 1008.8 |
| 20260504214707 | 5 | 327 | 33.8 | 51.5 | 0.00 | 0.00 | 0.00 | 48 | 1008.8 |
| 20260504213701 | 5 | 325 | 37.0 | 51.5 | 0.00 | 0.00 | 0.00 | 47 | 1008.8 |
| 20260504212710 | 5 | 319 | 32.2 | 49.9 | 0.00 | 0.00 | 0.00 | 47 | 1008.7 |
| 20260504211637 | 5 | 312 | 32.2 | 56.3 | 0.00 | 0.00 | 0.00 | 47 | 1008.6 |
| 20260504210630 | 5 | 310 | 33.8 | 56.3 | 0.00 | 0.00 | 0.00 | 49 | 1008.5 |
| 20260504205616 | 5 | 300 | 32.2 | 49.9 | 0.00 | 0.00 | 0.00 | 47 | 1008.5 |
| 20260504204620 | 5 | 329 | 32.2 | 49.9 | 0.00 | 0.00 | 0.00 | 49 | 1008.5 |
| 20260504203641 | 6 | 291 | 30.6 | 53.1 | 0.00 | 0.00 | 0.00 | 48 | 1008.5 |
| 20260504202704 | 6 | 0 | 35.4 | 53.1 | 0.00 | 0.00 | 0.00 | 46 | 1008.4 |
| 20260504201728 | 5 | 323 | 33.8 | 53.1 | 0.00 | 0.00 | 0.00 | 48 | 1008.3 |
| 20260504200711 | 5 | 319 | 29.0 | 48.3 | 0.00 | 0.00 | 0.00 | 49 | 1008.4 |
| 20260504195705 | 5 | 318 | 30.6 | 49.9 | 0.00 | 0.00 | 0.00 | 47 | 1008.2 |
| 20260504194647 | 5 | 0 | 27.4 | 48.3 | 0.00 | 0.00 | 0.00 | 48 | 1008.2 |
| 20260504193651 | 5 | 0 | 25.7 | 41.8 | 0.00 | 0.00 | 0.00 | 47 | 1008.1 |
| 20260504192646 | 5 | 0 | 29.0 | 45.1 | 0.00 | 0.00 | 0.00 | 49 | 1008.1 |
| 20260504191659 | 5 | 313 | 29.0 | 51.5 | 0.00 | 0.00 | 0.00 | 50 | 1008.1 |
| 20260504185556 | 5 | 0 | 29.0 | 49.9 | 0.00 | 0.00 | 0.00 | 51 | 1007.8 |
| 20260504184621 | 5 | 348 | 29.0 | 48.3 | 0.00 | 0.00 | 0.00 | 48 | 1007.8 |
| 20260504183631 | 5 | 310 | 30.6 | 49.9 | 0.00 | 0.00 | 0.00 | 52 | 1007.8 |
| 20260504182614 | 4 | 321 | 27.4 | 49.9 | 0.00 | 0.00 | 0.00 | 52 | 1007.8 |
| 20260504181549 | 4 | 0 | 32.2 | 51.5 | 0.00 | 0.00 | 0.00 | 54 | 1007.8 |
| 20260504180605 | 3 | 333 | 32.2 | 53.1 | 0.00 | 0.00 | 0.00 | 56 | 1007.8 |
| 20260504175544 | 4 | 323 | 37.0 | 53.1 | 0.00 | 0.00 | 0.00 | 56 | 1007.7 |
| 20260504174606 | 3 | 0 | 33.8 | 51.5 | 0.00 | 0.00 | 0.00 | 58 | 1007.7 |
| 20260504173600 | 3 | 341 | 32.2 | 51.5 | 0.00 | 0.00 | 0.00 | 58 | 1007.6 |
| 20260504172550 | 3 | 302 | 33.8 | 48.3 | 0.00 | 0.00 | 0.00 | 58 | 1007.4 |
| 20260504171552 | 3 | 313 | 30.6 | 49.9 | 0.00 | 0.00 | 0.00 | 59 | 1007.3 |
| 20260504170612 | 3 | 331 | 32.2 | 49.9 | 0.00 | 0.00 | 0.00 | 62 | 1007.3 |
| 20260504150442 | 3 | 321 | 27.4 | 41.8 | 0.00 | 0.00 | 0.00 | 71 | 1006.0 |
| 20260504141251 | 4 | 313 | 37.0 | 53.1 | 0.00 | 0.00 | 0.00 | 66 | 1005.5 |
| 20260504130131 | 3 | 280 | 20.9 | 30.6 | 0.00 | 0.00 | 0.00 | 74 | 1005.2 |